User: anonymous   Login
Location: Betzi
(47.2343°N, 9.5260°E)
Time: 00:50:28
(UTC+00:00)
Language:

AQUA - Orbit

View from above orbital plane
View from above orbital plane
View from above satellite
View from above satellite

Ground track
Ground track

The orbit data is extracted from the following two-line orbital elements,

1 27424U 02022A   22225.55438140  .00000386  00000-0  95246-4 0  9995
2 27424  98.2489 166.9115 0002006  73.4317  15.1190 14.57352464 78501
Epoch (UTC): 13 August 2022 13:18:18
Eccentricity: 0.0002006
inclination: 98.2489°
perigee height: 700 km
apogee height: 703 km
right ascension of ascending node: 166.9115°
argument of perigee: 73.4317°
revolutions per day: 14.57352464
mean anomaly at epoch: 15.1190°
orbit number at epoch: 7850

The dashed part of the orbit path shows where the satellite is in the earth's shadow,  

DLR